owner,sensor,date,latitude,longitude,air_temperature,qcFlag 
WAVCIS,ioos:station:WAVCIS:CSI03:1,2011-12-01T00:00:00Z,29.4412,-92.0613,14.98,11111222 
WAVCIS,ioos:station:WAVCIS:CSI03:1,2011-12-01T01:00:00Z,29.4412,-92.0613,15.31,11111222 
WAVCIS,ioos:station:WAVCIS:CSI03:1,2011-12-01T02:00:00Z,29.4412,-92.0613,15.18,11111222 
WAVCIS,ioos:station:WAVCIS:CSI03:1,2011-12-01T03:00:00Z,29.4412,-92.0613,15.14,11111222 
WAVCIS,ioos:station:WAVCIS:CSI03:1,2011-12-01T04:00:00Z,29.4412,-92.0613,15.11,11111222 
WAVCIS,ioos:station:WAVCIS:CSI03:1,2011-12-01T05:00:00Z,29.4412,-92.0613,14.91,11111222 
WAVCIS,ioos:station:WAVCIS:CSI03:1,2011-12-01T06:00:00Z,29.4412,-92.0613,14.52,11111222 
WAVCIS,ioos:station:WAVCIS:CSI03:1,2011-12-01T07:00:00Z,29.4412,-92.0613,14.13,11111222 
WAVCIS,ioos:station:WAVCIS:CSI03:1,2011-12-01T08:00:00Z,29.4412,-92.0613,14.19,11111222 
WAVCIS,ioos:station:WAVCIS:CSI03:1,2011-12-01T09:00:00Z,29.4412,-92.0613,14.28,11111222 
WAVCIS,ioos:station:WAVCIS:CSI03:1,2011-12-01T10:00:00Z,29.4412,-92.0613,14.28,11111222 
WAVCIS,ioos:station:WAVCIS:CSI03:1,2011-12-01T11:00:00Z,29.4412,-92.0613,13.89,11111222 
WAVCIS,ioos:station:WAVCIS:CSI03:1,2011-12-01T12:00:00Z,29.4412,-92.0613,13.64,11111222 
WAVCIS,ioos:station:WAVCIS:CSI03:1,2011-12-01T13:00:00Z,29.4412,-92.0613,13.44,11111222 
WAVCIS,ioos:station:WAVCIS:CSI03:1,2011-12-01T14:00:00Z,29.4412,-92.0613,13.54,11111222 
WAVCIS,ioos:station:WAVCIS:CSI03:1,2011-12-01T15:00:00Z,29.4412,-92.0613,13.55,11111222 
WAVCIS,ioos:station:WAVCIS:CSI03:1,2011-12-01T16:00:00Z,29.4412,-92.0613,13.36,11111222 
WAVCIS,ioos:station:WAVCIS:CSI03:1,2011-12-01T17:00:00Z,29.4412,-92.0613,13.55,11111222 
WAVCIS,ioos:station:WAVCIS:CSI03:1,2011-12-01T18:00:00Z,29.4412,-92.0613,13.82,11111222 
WAVCIS,ioos:station:WAVCIS:CSI03:1,2011-12-01T19:00:00Z,29.4412,-92.0613,14.1,11111222 
WAVCIS,ioos:station:WAVCIS:CSI03:1,2011-12-01T20:00:00Z,29.4412,-92.0613,14.69,11111222 
WAVCIS,ioos:station:WAVCIS:CSI03:1,2011-12-01T21:00:00Z,29.4412,-92.0613,15.1,11111222 
WAVCIS,ioos:station:WAVCIS:CSI03:1,2011-12-01T22:00:00Z,29.4412,-92.0613,15.28,11111222 
WAVCIS,ioos:station:WAVCIS:CSI03:1,2011-12-01T23:00:00Z,29.4412,-92.0613,15.52,11111222 
WAVCIS,ioos:station:WAVCIS:CSI03:1,2011-12-02T00:00:00Z,29.4412,-92.0613,15.46,11111222 
WAVCIS,ioos:station:WAVCIS:CSI03:1,2011-12-02T01:00:00Z,29.4412,-92.0613,15.53,11111222 
WAVCIS,ioos:station:WAVCIS:CSI03:1,2011-12-02T02:00:00Z,29.4412,-92.0613,15.47,11111222 
WAVCIS,ioos:station:WAVCIS:CSI03:1,2011-12-02T03:00:00Z,29.4412,-92.0613,14.99,11111222 
WAVCIS,ioos:station:WAVCIS:CSI03:1,2011-12-02T04:00:00Z,29.4412,-92.0613,14.64,11111222 
WAVCIS,ioos:station:WAVCIS:CSI03:1,2011-12-02T05:00:00Z,29.4412,-92.0613,14.16,11111222 
WAVCIS,ioos:station:WAVCIS:CSI03:1,2011-12-02T06:00:00Z,29.4412,-92.0613,13.81,11111222 
WAVCIS,ioos:station:WAVCIS:CSI03:1,2011-12-02T07:00:00Z,29.4412,-92.0613,13.2,11111222 
WAVCIS,ioos:station:WAVCIS:CSI03:1,2011-12-02T08:00:00Z,29.4412,-92.0613,13.73,11111222 
WAVCIS,ioos:station:WAVCIS:CSI03:1,2011-12-02T09:00:00Z,29.4412,-92.0613,13.48,11111222 
WAVCIS,ioos:station:WAVCIS:CSI03:1,2011-12-02T10:00:00Z,29.4412,-92.0613,13.19,11111222 
WAVCIS,ioos:station:WAVCIS:CSI03:1,2011-12-02T11:00:00Z,29.4412,-92.0613,12.57,11111222 
WAVCIS,ioos:station:WAVCIS:CSI03:1,2011-12-02T12:00:00Z,29.4412,-92.0613,11.64,11111222 
WAVCIS,ioos:station:WAVCIS:CSI03:1,2011-12-02T13:00:00Z,29.4412,-92.0613,11.91,11111222 
WAVCIS,ioos:station:WAVCIS:CSI03:1,2011-12-02T14:00:00Z,29.4412,-92.0613,12.34,11111222 
WAVCIS,ioos:station:WAVCIS:CSI03:1,2011-12-02T15:00:00Z,29.4412,-92.0613,12.93,11111222 
WAVCIS,ioos:station:WAVCIS:CSI03:1,2011-12-02T16:00:00Z,29.4412,-92.0613,13.49,11111222 
WAVCIS,ioos:station:WAVCIS:CSI03:1,2011-12-02T17:00:00Z,29.4412,-92.0613,14.04,11111222 
WAVCIS,ioos:station:WAVCIS:CSI03:1,2011-12-02T18:00:00Z,29.4412,-92.0613,14.57,11111222 
WAVCIS,ioos:station:WAVCIS:CSI03:1,2011-12-02T19:00:00Z,29.4412,-92.0613,15.03,11111222 
WAVCIS,ioos:station:WAVCIS:CSI03:1,2011-12-02T20:00:00Z,29.4412,-92.0613,16.02,11111222 
WAVCIS,ioos:station:WAVCIS:CSI03:1,2011-12-02T21:00:00Z,29.4412,-92.0613,16.8,11111222 
WAVCIS,ioos:station:WAVCIS:CSI03:1,2011-12-02T22:00:00Z,29.4412,-92.0613,17.6,11111222 
WAVCIS,ioos:station:WAVCIS:CSI03:1,2011-12-02T23:00:00Z,29.4412,-92.0613,18.17,11111222 
WAVCIS,ioos:station:WAVCIS:CSI03:1,2011-12-03T00:00:00Z,29.4412,-92.0613,17.42,11111222 
WAVCIS,ioos:station:WAVCIS:CSI03:1,2011-12-03T01:00:00Z,29.4412,-92.0613,17.63,11111222 
WAVCIS,ioos:station:WAVCIS:CSI03:1,2011-12-03T02:00:00Z,29.4412,-92.0613,17.05,11111222 
WAVCIS,ioos:station:WAVCIS:CSI03:1,2011-12-03T03:00:00Z,29.4412,-92.0613,16.57,11111222 
WAVCIS,ioos:station:WAVCIS:CSI03:1,2011-12-03T04:00:00Z,29.4412,-92.0613,16.35,11111222 
WAVCIS,ioos:station:WAVCIS:CSI03:1,2011-12-03T05:00:00Z,29.4412,-92.0613,15.91,11111222 
WAVCIS,ioos:station:WAVCIS:CSI03:1,2011-12-03T06:00:00Z,29.4412,-92.0613,15.68,11111222 
WAVCIS,ioos:station:WAVCIS:CSI03:1,2011-12-03T07:00:00Z,29.4412,-92.0613,15.81,11111222 
WAVCIS,ioos:station:WAVCIS:CSI03:1,2011-12-03T08:00:00Z,29.4412,-92.0613,16.01,11111222 
WAVCIS,ioos:station:WAVCIS:CSI03:1,2011-12-03T09:00:00Z,29.4412,-92.0613,16.0,11111222 
WAVCIS,ioos:station:WAVCIS:CSI03:1,2011-12-03T10:00:00Z,29.4412,-92.0613,16.03,11111222 
WAVCIS,ioos:station:WAVCIS:CSI03:1,2011-12-03T11:00:00Z,29.4412,-92.0613,16.11,11111222 
WAVCIS,ioos:station:WAVCIS:CSI03:1,2011-12-03T12:00:00Z,29.4412,-92.0613,16.48,11111222 
WAVCIS,ioos:station:WAVCIS:CSI03:1,2011-12-03T13:00:00Z,29.4412,-92.0613,16.75,11111222 
WAVCIS,ioos:station:WAVCIS:CSI03:1,2011-12-03T14:00:00Z,29.4412,-92.0613,17.14,11111222 
WAVCIS,ioos:station:WAVCIS:CSI03:1,2011-12-03T15:00:00Z,29.4412,-92.0613,17.77,11111222 
WAVCIS,ioos:station:WAVCIS:CSI03:1,2011-12-03T16:00:00Z,29.4412,-92.0613,17.66,11111222 
WAVCIS,ioos:station:WAVCIS:CSI03:1,2011-12-03T17:00:00Z,29.4412,-92.0613,18.14,11111222 
WAVCIS,ioos:station:WAVCIS:CSI03:1,2011-12-03T18:00:00Z,29.4412,-92.0613,18.24,11111222 
WAVCIS,ioos:station:WAVCIS:CSI03:1,2011-12-03T19:00:00Z,29.4412,-92.0613,19.07,11111222 
WAVCIS,ioos:station:WAVCIS:CSI03:1,2011-12-03T20:00:00Z,29.4412,-92.0613,18.95,11111222 
WAVCIS,ioos:station:WAVCIS:CSI03:1,2011-12-03T21:00:00Z,29.4412,-92.0613,18.97,11111222 
WAVCIS,ioos:station:WAVCIS:CSI03:1,2011-12-03T22:00:00Z,29.4412,-92.0613,18.46,11111222 
WAVCIS,ioos:station:WAVCIS:CSI03:1,2011-12-03T23:00:00Z,29.4412,-92.0613,18.38,11111222 
WAVCIS,ioos:station:WAVCIS:CSI03:1,2011-12-04T00:00:00Z,29.4412,-92.0613,18.31,11111222 
WAVCIS,ioos:station:WAVCIS:CSI03:1,2011-12-04T01:00:00Z,29.4412,-92.0613,18.26,11111222 
WAVCIS,ioos:station:WAVCIS:CSI03:1,2011-12-04T02:00:00Z,29.4412,-92.0613,18.23,11111222 
WAVCIS,ioos:station:WAVCIS:CSI03:1,2011-12-04T03:00:00Z,29.4412,-92.0613,18.2,11111222 
WAVCIS,ioos:station:WAVCIS:CSI03:1,2011-12-04T04:00:00Z,29.4412,-92.0613,18.45,11111222 
WAVCIS,ioos:station:WAVCIS:CSI03:1,2011-12-04T05:00:00Z,29.4412,-92.0613,18.51,11111222 
WAVCIS,ioos:station:WAVCIS:CSI03:1,2011-12-04T06:00:00Z,29.4412,-92.0613,18.35,11111222 
WAVCIS,ioos:station:WAVCIS:CSI03:1,2011-12-04T07:00:00Z,29.4412,-92.0613,18.56,11111222 
WAVCIS,ioos:station:WAVCIS:CSI03:1,2011-12-04T08:00:00Z,29.4412,-92.0613,18.19,11111222 
WAVCIS,ioos:station:WAVCIS:CSI03:1,2011-12-04T09:00:00Z,29.4412,-92.0613,18.1,11111222 
WAVCIS,ioos:station:WAVCIS:CSI03:1,2011-12-04T10:00:00Z,29.4412,-92.0613,17.99,11111222 
WAVCIS,ioos:station:WAVCIS:CSI03:1,2011-12-04T11:00:00Z,29.4412,-92.0613,18.69,11111222 
WAVCIS,ioos:station:WAVCIS:CSI03:1,2011-12-04T12:00:00Z,29.4412,-92.0613,18.55,11111222 
WAVCIS,ioos:station:WAVCIS:CSI03:1,2011-12-04T13:00:00Z,29.4412,-92.0613,18.74,11111222 
WAVCIS,ioos:station:WAVCIS:CSI03:1,2011-12-04T14:00:00Z,29.4412,-92.0613,18.94,11111222 
WAVCIS,ioos:station:WAVCIS:CSI03:1,2011-12-04T15:00:00Z,29.4412,-92.0613,18.57,11111222 
WAVCIS,ioos:station:WAVCIS:CSI03:1,2011-12-04T16:00:00Z,29.4412,-92.0613,18.66,11111222 
WAVCIS,ioos:station:WAVCIS:CSI03:1,2011-12-04T17:00:00Z,29.4412,-92.0613,18.88,11111222 
WAVCIS,ioos:station:WAVCIS:CSI03:1,2011-12-04T18:00:00Z,29.4412,-92.0613,18.83,11111222 
WAVCIS,ioos:station:WAVCIS:CSI03:1,2011-12-04T19:00:00Z,29.4412,-92.0613,18.99,11111222 
WAVCIS,ioos:station:WAVCIS:CSI03:1,2011-12-04T20:00:00Z,29.4412,-92.0613,19.32,11111222 
WAVCIS,ioos:station:WAVCIS:CSI03:1,2011-12-04T21:00:00Z,29.4412,-92.0613,19.86,11111222 
WAVCIS,ioos:station:WAVCIS:CSI03:1,2011-12-04T22:00:00Z,29.4412,-92.0613,19.75,11111222 
WAVCIS,ioos:station:WAVCIS:CSI03:1,2011-12-04T23:00:00Z,29.4412,-92.0613,20.02,11111222 
WAVCIS,ioos:station:WAVCIS:CSI03:1,2011-12-05T00:00:00Z,29.4412,-92.0613,20.12,11111222 
WAVCIS,ioos:station:WAVCIS:CSI03:1,2011-12-05T01:00:00Z,29.4412,-92.0613,20.14,11111222 
WAVCIS,ioos:station:WAVCIS:CSI03:1,2011-12-05T02:00:00Z,29.4412,-92.0613,20.39,11111222 
WAVCIS,ioos:station:WAVCIS:CSI03:1,2011-12-05T03:00:00Z,29.4412,-92.0613,20.92,11111222 
WAVCIS,ioos:station:WAVCIS:CSI03:1,2011-12-05T04:00:00Z,29.4412,-92.0613,20.23,11111222 
WAVCIS,ioos:station:WAVCIS:CSI03:1,2011-12-05T05:00:00Z,29.4412,-92.0613,22.21,11111222 
WAVCIS,ioos:station:WAVCIS:CSI03:1,2011-12-05T06:00:00Z,29.4412,-92.0613,19.32,11111222 
WAVCIS,ioos:station:WAVCIS:CSI03:1,2011-12-05T07:00:00Z,29.4412,-92.0613,20.07,11111222 
WAVCIS,ioos:station:WAVCIS:CSI03:1,2011-12-05T08:00:00Z,29.4412,-92.0613,19.67,11111222 
WAVCIS,ioos:station:WAVCIS:CSI03:1,2011-12-05T09:00:00Z,29.4412,-92.0613,19.67,11111222 
WAVCIS,ioos:station:WAVCIS:CSI03:1,2011-12-05T10:00:00Z,29.4412,-92.0613,19.16,11111222 
WAVCIS,ioos:station:WAVCIS:CSI03:1,2011-12-05T11:00:00Z,29.4412,-92.0613,18.81,11111222 
WAVCIS,ioos:station:WAVCIS:CSI03:1,2011-12-05T12:00:00Z,29.4412,-92.0613,19.22,11111222 
WAVCIS,ioos:station:WAVCIS:CSI03:1,2011-12-05T13:00:00Z,29.4412,-92.0613,20.57,11111222 
WAVCIS,ioos:station:WAVCIS:CSI03:1,2011-12-05T14:00:00Z,29.4412,-92.0613,22.24,11111222 
WAVCIS,ioos:station:WAVCIS:CSI03:1,2011-12-05T15:00:00Z,29.4412,-92.0613,21.72,11111222 
WAVCIS,ioos:station:WAVCIS:CSI03:1,2011-12-05T16:00:00Z,29.4412,-92.0613,22.46,11111222 
WAVCIS,ioos:station:WAVCIS:CSI03:1,2011-12-05T17:00:00Z,29.4412,-92.0613,21.91,11111222 
WAVCIS,ioos:station:WAVCIS:CSI03:1,2011-12-05T18:00:00Z,29.4412,-92.0613,21.46,11111222 
WAVCIS,ioos:station:WAVCIS:CSI03:1,2011-12-05T19:00:00Z,29.4412,-92.0613,21.43,11111222 
WAVCIS,ioos:station:WAVCIS:CSI03:1,2011-12-05T20:00:00Z,29.4412,-92.0613,21.9,11111222 
WAVCIS,ioos:station:WAVCIS:CSI03:1,2011-12-05T21:00:00Z,29.4412,-92.0613,18.67,11111222 
WAVCIS,ioos:station:WAVCIS:CSI03:1,2011-12-05T22:00:00Z,29.4412,-92.0613,18.21,11111222 
WAVCIS,ioos:station:WAVCIS:CSI03:1,2011-12-05T23:00:00Z,29.4412,-92.0613,18.61,11111222 
WAVCIS,ioos:station:WAVCIS:CSI03:1,2011-12-06T00:00:00Z,29.4412,-92.0613,17.71,11111222 
WAVCIS,ioos:station:WAVCIS:CSI03:1,2011-12-06T01:00:00Z,29.4412,-92.0613,17.89,11111222 
WAVCIS,ioos:station:WAVCIS:CSI03:1,2011-12-06T02:00:00Z,29.4412,-92.0613,16.48,11111222 
WAVCIS,ioos:station:WAVCIS:CSI03:1,2011-12-06T03:00:00Z,29.4412,-92.0613,14.54,11111222 
WAVCIS,ioos:station:WAVCIS:CSI03:1,2011-12-06T04:00:00Z,29.4412,-92.0613,13.84,11111222 
WAVCIS,ioos:station:WAVCIS:CSI03:1,2011-12-06T05:00:00Z,29.4412,-92.0613,13.0,11111222 
WAVCIS,ioos:station:WAVCIS:CSI03:1,2011-12-06T06:00:00Z,29.4412,-92.0613,11.96,11111222 
WAVCIS,ioos:station:WAVCIS:CSI03:1,2011-12-06T07:00:00Z,29.4412,-92.0613,11.01,11111222 
WAVCIS,ioos:station:WAVCIS:CSI03:1,2011-12-06T08:00:00Z,29.4412,-92.0613,10.68,11111222 
WAVCIS,ioos:station:WAVCIS:CSI03:1,2011-12-06T09:00:00Z,29.4412,-92.0613,10.32,11111222 
WAVCIS,ioos:station:WAVCIS:CSI03:1,2011-12-06T10:00:00Z,29.4412,-92.0613,10.12,11111222 
WAVCIS,ioos:station:WAVCIS:CSI03:1,2011-12-06T11:00:00Z,29.4412,-92.0613,9.71,11111222 
WAVCIS,ioos:station:WAVCIS:CSI03:1,2011-12-06T12:00:00Z,29.4412,-92.0613,9.42,11111222 
WAVCIS,ioos:station:WAVCIS:CSI03:1,2011-12-06T13:00:00Z,29.4412,-92.0613,9.21,11111222 
WAVCIS,ioos:station:WAVCIS:CSI03:1,2011-12-06T14:00:00Z,29.4412,-92.0613,8.91,11111222 
WAVCIS,ioos:station:WAVCIS:CSI03:1,2011-12-06T15:00:00Z,29.4412,-92.0613,8.84,11111222 
WAVCIS,ioos:station:WAVCIS:CSI03:1,2011-12-06T16:00:00Z,29.4412,-92.0613,9.1,11111222 
WAVCIS,ioos:station:WAVCIS:CSI03:1,2011-12-06T17:00:00Z,29.4412,-92.0613,8.91,11111222 
WAVCIS,ioos:station:WAVCIS:CSI03:1,2011-12-06T18:00:00Z,29.4412,-92.0613,8.79,11111222 
WAVCIS,ioos:station:WAVCIS:CSI03:1,2011-12-06T19:00:00Z,29.4412,-92.0613,8.24,11111222 
WAVCIS,ioos:station:WAVCIS:CSI03:1,2011-12-06T20:00:00Z,29.4412,-92.0613,8.69,11111222 
WAVCIS,ioos:station:WAVCIS:CSI03:1,2011-12-06T21:00:00Z,29.4412,-92.0613,8.8,11111222 
WAVCIS,ioos:station:WAVCIS:CSI03:1,2011-12-06T22:00:00Z,29.4412,-92.0613,9.02,11111222 
WAVCIS,ioos:station:WAVCIS:CSI03:1,2011-12-06T23:00:00Z,29.4412,-92.0613,8.72,11111222 
WAVCIS,ioos:station:WAVCIS:CSI03:1,2011-12-07T00:00:00Z,29.4412,-92.0613,8.66,11111222 
WAVCIS,ioos:station:WAVCIS:CSI03:1,2011-12-07T01:00:00Z,29.4412,-92.0613,8.54,11111222 
WAVCIS,ioos:station:WAVCIS:CSI03:1,2011-12-07T02:00:00Z,29.4412,-92.0613,8.24,11111222 
WAVCIS,ioos:station:WAVCIS:CSI03:1,2011-12-07T03:00:00Z,29.4412,-92.0613,7.81,11111222 
WAVCIS,ioos:station:WAVCIS:CSI03:1,2011-12-07T04:00:00Z,29.4412,-92.0613,7.54,11111222 
WAVCIS,ioos:station:WAVCIS:CSI03:1,2011-12-07T05:00:00Z,29.4412,-92.0613,7.56,11111222 
WAVCIS,ioos:station:WAVCIS:CSI03:1,2011-12-07T06:00:00Z,29.4412,-92.0613,7.2,11111222 
WAVCIS,ioos:station:WAVCIS:CSI03:1,2011-12-07T07:00:00Z,29.4412,-92.0613,6.597,11111222 
WAVCIS,ioos:station:WAVCIS:CSI03:1,2011-12-07T08:00:00Z,29.4412,-92.0613,6.052,11111222 
WAVCIS,ioos:station:WAVCIS:CSI03:1,2011-12-07T09:00:00Z,29.4412,-92.0613,6.046,11111222 
WAVCIS,ioos:station:WAVCIS:CSI03:1,2011-12-07T10:00:00Z,29.4412,-92.0613,5.338,11111222 
WAVCIS,ioos:station:WAVCIS:CSI03:1,2011-12-07T11:00:00Z,29.4412,-92.0613,4.746,11111222 
WAVCIS,ioos:station:WAVCIS:CSI03:1,2011-12-07T12:00:00Z,29.4412,-92.0613,3.969,11111222 
WAVCIS,ioos:station:WAVCIS:CSI03:1,2011-12-07T13:00:00Z,29.4412,-92.0613,3.02,11111222 
WAVCIS,ioos:station:WAVCIS:CSI03:1,2011-12-07T14:00:00Z,29.4412,-92.0613,2.46,11111222 
WAVCIS,ioos:station:WAVCIS:CSI03:1,2011-12-07T15:00:00Z,29.4412,-92.0613,3.005,11111222 
WAVCIS,ioos:station:WAVCIS:CSI03:1,2011-12-07T16:00:00Z,29.4412,-92.0613,3.69,11111222 
WAVCIS,ioos:station:WAVCIS:CSI03:1,2011-12-07T17:00:00Z,29.4412,-92.0613,4.445,11111222 
WAVCIS,ioos:station:WAVCIS:CSI03:1,2011-12-07T18:00:00Z,29.4412,-92.0613,5.349,11111222 
WAVCIS,ioos:station:WAVCIS:CSI03:1,2011-12-07T19:00:00Z,29.4412,-92.0613,6.388,11111222 
WAVCIS,ioos:station:WAVCIS:CSI03:1,2011-12-07T20:00:00Z,29.4412,-92.0613,7.17,11111222 
WAVCIS,ioos:station:WAVCIS:CSI03:1,2011-12-07T21:00:00Z,29.4412,-92.0613,7.81,11111222 
WAVCIS,ioos:station:WAVCIS:CSI03:1,2011-12-07T22:00:00Z,29.4412,-92.0613,8.33,11111222 
WAVCIS,ioos:station:WAVCIS:CSI03:1,2011-12-07T23:00:00Z,29.4412,-92.0613,8.27,11111222 
WAVCIS,ioos:station:WAVCIS:CSI03:1,2011-12-08T00:00:00Z,29.4412,-92.0613,8.37,11111222 
WAVCIS,ioos:station:WAVCIS:CSI03:1,2011-12-08T01:00:00Z,29.4412,-92.0613,8.45,11111222 
WAVCIS,ioos:station:WAVCIS:CSI03:1,2011-12-08T02:00:00Z,29.4412,-92.0613,8.52,11111222 
WAVCIS,ioos:station:WAVCIS:CSI03:1,2011-12-08T03:00:00Z,29.4412,-92.0613,7.61,11111222 
WAVCIS,ioos:station:WAVCIS:CSI03:1,2011-12-08T04:00:00Z,29.4412,-92.0613,7.5,11111222 
WAVCIS,ioos:station:WAVCIS:CSI03:1,2011-12-08T05:00:00Z,29.4412,-92.0613,7.1,11111222 
WAVCIS,ioos:station:WAVCIS:CSI03:1,2011-12-08T06:00:00Z,29.4412,-92.0613,6.643,11111222 
WAVCIS,ioos:station:WAVCIS:CSI03:1,2011-12-08T07:00:00Z,29.4412,-92.0613,6.193,11111222 
WAVCIS,ioos:station:WAVCIS:CSI03:1,2011-12-08T08:00:00Z,29.4412,-92.0613,5.91,11111222 
WAVCIS,ioos:station:WAVCIS:CSI03:1,2011-12-08T09:00:00Z,29.4412,-92.0613,5.732,11111222 
WAVCIS,ioos:station:WAVCIS:CSI03:1,2011-12-08T10:00:00Z,29.4412,-92.0613,5.715,11111222 
WAVCIS,ioos:station:WAVCIS:CSI03:1,2011-12-08T11:00:00Z,29.4412,-92.0613,5.581,11111222 
WAVCIS,ioos:station:WAVCIS:CSI03:1,2011-12-08T12:00:00Z,29.4412,-92.0613,5.308,11111222 
WAVCIS,ioos:station:WAVCIS:CSI03:1,2011-12-08T13:00:00Z,29.4412,-92.0613,5.227,11111222 
WAVCIS,ioos:station:WAVCIS:CSI03:1,2011-12-08T14:00:00Z,29.4412,-92.0613,5.492,11111222 
WAVCIS,ioos:station:WAVCIS:CSI03:1,2011-12-08T15:00:00Z,29.4412,-92.0613,5.822,11111222 
WAVCIS,ioos:station:WAVCIS:CSI03:1,2011-12-08T16:00:00Z,29.4412,-92.0613,6.012,11111222 
WAVCIS,ioos:station:WAVCIS:CSI03:1,2011-12-08T17:00:00Z,29.4412,-92.0613,6.519,11111222 
WAVCIS,ioos:station:WAVCIS:CSI03:1,2011-12-08T18:00:00Z,29.4412,-92.0613,6.679,11111222 
WAVCIS,ioos:station:WAVCIS:CSI03:1,2011-12-08T19:00:00Z,29.4412,-92.0613,7.32,11111222 
WAVCIS,ioos:station:WAVCIS:CSI03:1,2011-12-08T20:00:00Z,29.4412,-92.0613,7.9,11111222 
WAVCIS,ioos:station:WAVCIS:CSI03:1,2011-12-08T21:00:00Z,29.4412,-92.0613,10.88,11111222 
WAVCIS,ioos:station:WAVCIS:CSI03:1,2011-12-08T22:00:00Z,29.4412,-92.0613,9.31,11111222 
WAVCIS,ioos:station:WAVCIS:CSI03:1,2011-12-08T23:00:00Z,29.4412,-92.0613,8.83,11111222 
WAVCIS,ioos:station:WAVCIS:CSI03:1,2011-12-09T00:00:00Z,29.4412,-92.0613,8.9,11111222 
WAVCIS,ioos:station:WAVCIS:CSI03:1,2011-12-09T01:00:00Z,29.4412,-92.0613,9.27,11111222 
WAVCIS,ioos:station:WAVCIS:CSI03:1,2011-12-09T02:00:00Z,29.4412,-92.0613,9.3,11111222 
WAVCIS,ioos:station:WAVCIS:CSI03:1,2011-12-09T03:00:00Z,29.4412,-92.0613,9.84,11111222 
WAVCIS,ioos:station:WAVCIS:CSI03:1,2011-12-09T04:00:00Z,29.4412,-92.0613,9.67,11111222 
WAVCIS,ioos:station:WAVCIS:CSI03:1,2011-12-09T05:00:00Z,29.4412,-92.0613,9.92,11111222 
WAVCIS,ioos:station:WAVCIS:CSI03:1,2011-12-09T06:00:00Z,29.4412,-92.0613,10.06,11111222 
WAVCIS,ioos:station:WAVCIS:CSI03:1,2011-12-09T07:00:00Z,29.4412,-92.0613,9.87,11111222 
WAVCIS,ioos:station:WAVCIS:CSI03:1,2011-12-09T08:00:00Z,29.4412,-92.0613,9.98,11111222 
WAVCIS,ioos:station:WAVCIS:CSI03:1,2011-12-09T09:00:00Z,29.4412,-92.0613,9.81,11111222 
WAVCIS,ioos:station:WAVCIS:CSI03:1,2011-12-09T10:00:00Z,29.4412,-92.0613,9.46,11111222 
WAVCIS,ioos:station:WAVCIS:CSI03:1,2011-12-09T11:00:00Z,29.4412,-92.0613,9.51,11111222 
WAVCIS,ioos:station:WAVCIS:CSI03:1,2011-12-09T12:00:00Z,29.4412,-92.0613,9.8,11111222 
WAVCIS,ioos:station:WAVCIS:CSI03:1,2011-12-09T13:00:00Z,29.4412,-92.0613,10.26,11111222 
WAVCIS,ioos:station:WAVCIS:CSI03:1,2011-12-09T14:00:00Z,29.4412,-92.0613,10.49,11111222 
WAVCIS,ioos:station:WAVCIS:CSI03:1,2011-12-09T15:00:00Z,29.4412,-92.0613,10.16,11111222 
WAVCIS,ioos:station:WAVCIS:CSI03:1,2011-12-09T16:00:00Z,29.4412,-92.0613,10.77,11111222 
WAVCIS,ioos:station:WAVCIS:CSI03:1,2011-12-09T17:00:00Z,29.4412,-92.0613,10.97,11111222 
WAVCIS,ioos:station:WAVCIS:CSI03:1,2011-12-09T18:00:00Z,29.4412,-92.0613,11.33,11111222 
WAVCIS,ioos:station:WAVCIS:CSI03:1,2011-12-09T19:00:00Z,29.4412,-92.0613,11.9,11111222 
WAVCIS,ioos:station:WAVCIS:CSI03:1,2011-12-09T20:00:00Z,29.4412,-92.0613,12.04,11111222 
WAVCIS,ioos:station:WAVCIS:CSI03:1,2011-12-09T21:00:00Z,29.4412,-92.0613,12.88,11111222 
WAVCIS,ioos:station:WAVCIS:CSI03:1,2011-12-09T22:00:00Z,29.4412,-92.0613,12.94,11111222 
WAVCIS,ioos:station:WAVCIS:CSI03:1,2011-12-09T23:00:00Z,29.4412,-92.0613,12.79,11111222 
WAVCIS,ioos:station:WAVCIS:CSI03:1,2011-12-10T00:00:00Z,29.4412,-92.0613,12.59,11111222 
WAVCIS,ioos:station:WAVCIS:CSI03:1,2011-12-10T01:00:00Z,29.4412,-92.0613,12.34,11111222 
WAVCIS,ioos:station:WAVCIS:CSI03:1,2011-12-10T02:00:00Z,29.4412,-92.0613,12.23,11111222 
WAVCIS,ioos:station:WAVCIS:CSI03:1,2011-12-10T03:00:00Z,29.4412,-92.0613,12.24,11111222 
WAVCIS,ioos:station:WAVCIS:CSI03:1,2011-12-10T04:00:00Z,29.4412,-92.0613,11.47,11111222 
WAVCIS,ioos:station:WAVCIS:CSI03:1,2011-12-10T05:00:00Z,29.4412,-92.0613,11.04,11111222 
WAVCIS,ioos:station:WAVCIS:CSI03:1,2011-12-10T06:00:00Z,29.4412,-92.0613,10.6,11111222 
WAVCIS,ioos:station:WAVCIS:CSI03:1,2011-12-10T07:00:00Z,29.4412,-92.0613,10.28,11111222 
WAVCIS,ioos:station:WAVCIS:CSI03:1,2011-12-10T08:00:00Z,29.4412,-92.0613,9.98,11111222 
WAVCIS,ioos:station:WAVCIS:CSI03:1,2011-12-10T09:00:00Z,29.4412,-92.0613,9.55,11111222 
WAVCIS,ioos:station:WAVCIS:CSI03:1,2011-12-10T10:00:00Z,29.4412,-92.0613,9.16,11111222 
WAVCIS,ioos:station:WAVCIS:CSI03:1,2011-12-10T11:00:00Z,29.4412,-92.0613,8.8,11111222 
WAVCIS,ioos:station:WAVCIS:CSI03:1,2011-12-10T12:00:00Z,29.4412,-92.0613,8.47,11111222 
WAVCIS,ioos:station:WAVCIS:CSI03:1,2011-12-10T13:00:00Z,29.4412,-92.0613,8.11,11111222 
WAVCIS,ioos:station:WAVCIS:CSI03:1,2011-12-10T14:00:00Z,29.4412,-92.0613,8.12,11111222 
WAVCIS,ioos:station:WAVCIS:CSI03:1,2011-12-10T15:00:00Z,29.4412,-92.0613,8.36,11111222 
WAVCIS,ioos:station:WAVCIS:CSI03:1,2011-12-10T16:00:00Z,29.4412,-92.0613,9.52,11111222 
WAVCIS,ioos:station:WAVCIS:CSI03:1,2011-12-10T17:00:00Z,29.4412,-92.0613,10.57,11111222 
WAVCIS,ioos:station:WAVCIS:CSI03:1,2011-12-10T18:00:00Z,29.4412,-92.0613,10.52,11111222 
WAVCIS,ioos:station:WAVCIS:CSI03:1,2011-12-10T19:00:00Z,29.4412,-92.0613,10.91,11111222 
WAVCIS,ioos:station:WAVCIS:CSI03:1,2011-12-10T20:00:00Z,29.4412,-92.0613,12.32,11111222 
WAVCIS,ioos:station:WAVCIS:CSI03:1,2011-12-10T21:00:00Z,29.4412,-92.0613,12.87,11111222 
WAVCIS,ioos:station:WAVCIS:CSI03:1,2011-12-10T22:00:00Z,29.4412,-92.0613,13.05,11111222 
WAVCIS,ioos:station:WAVCIS:CSI03:1,2011-12-10T23:00:00Z,29.4412,-92.0613,12.95,11111222 
WAVCIS,ioos:station:WAVCIS:CSI03:1,2011-12-11T00:00:00Z,29.4412,-92.0613,12.54,11111222 
WAVCIS,ioos:station:WAVCIS:CSI03:1,2011-12-11T01:00:00Z,29.4412,-92.0613,12.03,11111222 
WAVCIS,ioos:station:WAVCIS:CSI03:1,2011-12-11T02:00:00Z,29.4412,-92.0613,11.73,11111222 
WAVCIS,ioos:station:WAVCIS:CSI03:1,2011-12-11T03:00:00Z,29.4412,-92.0613,11.11,11111222 
WAVCIS,ioos:station:WAVCIS:CSI03:1,2011-12-11T04:00:00Z,29.4412,-92.0613,10.71,11111222 
WAVCIS,ioos:station:WAVCIS:CSI03:1,2011-12-11T05:00:00Z,29.4412,-92.0613,10.18,11111222 
WAVCIS,ioos:station:WAVCIS:CSI03:1,2011-12-11T06:00:00Z,29.4412,-92.0613,9.89,11111222 
WAVCIS,ioos:station:WAVCIS:CSI03:1,2011-12-11T07:00:00Z,29.4412,-92.0613,9.45,11111222 
WAVCIS,ioos:station:WAVCIS:CSI03:1,2011-12-11T08:00:00Z,29.4412,-92.0613,9.09,11111222 
WAVCIS,ioos:station:WAVCIS:CSI03:1,2011-12-11T09:00:00Z,29.4412,-92.0613,8.72,11111222 
WAVCIS,ioos:station:WAVCIS:CSI03:1,2011-12-11T10:00:00Z,29.4412,-92.0613,8.46,11111222 
WAVCIS,ioos:station:WAVCIS:CSI03:1,2011-12-11T11:00:00Z,29.4412,-92.0613,8.49,11111222 
WAVCIS,ioos:station:WAVCIS:CSI03:1,2011-12-11T12:00:00Z,29.4412,-92.0613,8.26,11111222 
WAVCIS,ioos:station:WAVCIS:CSI03:1,2011-12-11T13:00:00Z,29.4412,-92.0613,8.04,11111222 
WAVCIS,ioos:station:WAVCIS:CSI03:1,2011-12-11T14:00:00Z,29.4412,-92.0613,7.87,11111222 
WAVCIS,ioos:station:WAVCIS:CSI03:1,2011-12-11T15:00:00Z,29.4412,-92.0613,7.76,11111222 
WAVCIS,ioos:station:WAVCIS:CSI03:1,2011-12-11T16:00:00Z,29.4412,-92.0613,8.01,11111222 
WAVCIS,ioos:station:WAVCIS:CSI03:1,2011-12-11T17:00:00Z,29.4412,-92.0613,8.32,11111222 
WAVCIS,ioos:station:WAVCIS:CSI03:1,2011-12-11T18:00:00Z,29.4412,-92.0613,8.54,11111222 
WAVCIS,ioos:station:WAVCIS:CSI03:1,2011-12-11T19:00:00Z,29.4412,-92.0613,9.22,11111222 
WAVCIS,ioos:station:WAVCIS:CSI03:1,2011-12-11T20:00:00Z,29.4412,-92.0613,10.76,11111222 
WAVCIS,ioos:station:WAVCIS:CSI03:1,2011-12-11T21:00:00Z,29.4412,-92.0613,10.06,11111222 
WAVCIS,ioos:station:WAVCIS:CSI03:1,2011-12-11T22:00:00Z,29.4412,-92.0613,11.19,11111222 
WAVCIS,ioos:station:WAVCIS:CSI03:1,2011-12-11T23:00:00Z,29.4412,-92.0613,11.46,11111222 
WAVCIS,ioos:station:WAVCIS:CSI03:1,2011-12-12T00:00:00Z,29.4412,-92.0613,11.29,11111222 
WAVCIS,ioos:station:WAVCIS:CSI03:1,2011-12-12T01:00:00Z,29.4412,-92.0613,11.04,11111222 
WAVCIS,ioos:station:WAVCIS:CSI03:1,2011-12-12T02:00:00Z,29.4412,-92.0613,10.75,11111222 
WAVCIS,ioos:station:WAVCIS:CSI03:1,2011-12-12T03:00:00Z,29.4412,-92.0613,10.34,11111222 
WAVCIS,ioos:station:WAVCIS:CSI03:1,2011-12-12T04:00:00Z,29.4412,-92.0613,10.25,11111222 
WAVCIS,ioos:station:WAVCIS:CSI03:1,2011-12-12T05:00:00Z,29.4412,-92.0613,10.13,11111222 